TimeEST,TemperatureF,Dew PointF,Humidity,Sea Level PressureIn,VisibilityMPH,Wind Direction,Wind SpeedMPH,Gust SpeedMPH,PrecipitationIn,Events,Conditions,WindDirDegrees,DateUTC
12:53 AM,24.1,21.9,91,30.49,10.0,SSW,3.5,-,N/A,,Clear,210,2013-01-19 05:53:00
1:53 AM,30.9,25.0,79,30.48,10.0,SW,6.9,-,N/A,,Clear,230,2013-01-19 06:53:00
2:53 AM,32.0,24.1,73,30.47,10.0,WSW,5.8,-,N/A,,Clear,240,2013-01-19 07:53:00
3:53 AM,34.0,25.0,70,30.45,10.0,SW,9.2,-,N/A,,Clear,220,2013-01-19 08:53:00
4:53 AM,35.1,27.0,72,30.44,10.0,SW,10.4,-,N/A,,Clear,230,2013-01-19 09:53:00
5:53 AM,36.0,28.0,73,30.44,10.0,SW,10.4,-,N/A,,Clear,230,2013-01-19 10:53:00
6:53 AM,37.0,28.9,73,30.43,10.0,SW,9.2,-,N/A,,Clear,220,2013-01-19 11:53:00
7:53 AM,37.0,32.0,82,30.43,10.0,SW,9.2,-,N/A,,Clear,230,2013-01-19 12:53:00
8:53 AM,39.9,28.0,63,30.42,10.0,SW,12.7,-,N/A,,Clear,220,2013-01-19 13:53:00
9:53 AM,42.1,27.0,55,30.41,10.0,SW,16.1,23.0,N/A,,Clear,230,2013-01-19 14:53:00
10:53 AM,45.0,28.0,52,30.39,10.0,SW,12.7,20.7,N/A,,Clear,230,2013-01-19 15:53:00
11:53 AM,46.0,32.0,58,30.33,10.0,SW,13.8,18.4,N/A,,Clear,220,2013-01-19 16:53:00
12:53 PM,48.0,30.0,50,30.29,10.0,SSW,10.4,24.2,N/A,,Clear,210,2013-01-19 17:53:00
1:53 PM,46.9,32.0,56,30.26,10.0,SSW,15.0,20.7,N/A,,Clear,210,2013-01-19 18:53:00
2:53 PM,46.9,34.0,61,30.23,10.0,SSW,12.7,-,N/A,,Clear,210,2013-01-19 19:53:00
3:53 PM,46.0,34.0,63,30.20,10.0,SSW,11.5,18.4,N/A,,Clear,210,2013-01-19 20:53:00
4:53 PM,43.0,34.0,71,30.19,10.0,SSW,10.4,-,N/A,,Clear,210,2013-01-19 21:53:00
5:53 PM,43.0,34.0,71,30.18,10.0,SSW,10.4,-,N/A,,Clear,210,2013-01-19 22:53:00
6:53 PM,42.1,36.0,79,30.17,10.0,SSW,8.1,-,N/A,,Clear,200,2013-01-19 23:53:00
7:53 PM,43.0,39.0,86,30.16,10.0,SW,10.4,-,N/A,,Clear,220,2013-01-20 00:53:00
8:53 PM,44.1,41.0,89,30.14,10.0,SW,11.5,-,N/A,,Clear,220,2013-01-20 01:53:00
9:53 PM,44.1,37.9,79,30.12,10.0,SW,12.7,-,N/A,,Clear,230,2013-01-20 02:53:00
10:53 PM,43.0,34.0,71,30.10,10.0,WSW,11.5,-,N/A,,Clear,240,2013-01-20 03:53:00